Location: ????????
(60.5616°N, 46.8254°E)
Time: 19:59:26
(UTC+00:00)

Cosmos 1515 Rocket - Pass Details

Date: 18 February 2020
Orbit: 606 x 630 km, 82.5° (Epoch: 07 April)

Event Time Altitude Azimuth Distance (km) Brightness Sun altitude
Rises 14:23:51 0° 344° (NNW) 2,911 7.0 -5.0°
Reaches altitude 10° 14:26:06 10° 343° (NNW) 1,997 6.2 -5.3°
Maximum altitude 14:30:30 72° 260° (W) 652 3.9 -5.8°
Drops below altitude 10° 14:34:51 10° 176° (S) 1,967 6.3 -6.3°
Sets 14:37:03 0° 175° (S) 2,865 7.1 -6.6°
